weather.gov     
National Weather Service

Regional Weather Roundup
NWS Homepage
This page is being discontinued on March 12, 2014.
The same data is available at this site. Please update your bookmarks.
Thank you, and we apologize for the inconvenience.
Please send an email to SR-SRH.Webmaster@noaa.gov with any concerns.


Current Version
Previous Version:    01  02  03  04  05  06  07  08  09  10  11  12  13  14  15  16  17  18  19  20  21  22  23  24  25  26  27  28  29  30  
   31  32  33  34  35  36  37  38  39  40  41  42  43  44  45  46  47  48  49  50  51  52  53  54  55  56  57  58  59  60  
[Printable]
496
ASUS41 KCLE 221610
RWRCLE
OHIO REGIONAL WEATHER ROUNDUP
NATIONAL WEATHER SERVICE WILMINGTON, OH
1100 AM EST SAT NOV 22 2014

NOTE: "FAIR" INDICATES FEW OR NO CLOUDS BELOW 12,000 FEET WITH NO
SIGNIFICANT WEATHER AND/OR OBSTRUCTIONS TO VISIBILITY.

OHZ001>008-015>018-024>027-034-035-043-044-221700-
   NORTHWEST OHIO

CITY           SKY/WX    TMP DP  RH WIND       PRES   REMARKS
DEFIANCE       CLOUDY    42  37  82 SW13      30.11F
FINDLAY        CLOUDY    42  36  79 S15       30.13F
TOLEDO EXPRESS LGT RAIN  39  36  89 SW10G20   30.10F
TOLEDO METCALF CLOUDY    40  35  83 SW10      30.11F
LIMA           CLOUDY    44  36  73 SW17G29   30.14F
$$

OHZ009>014-019>023-028>033-038-089-221700-
   NORTHEAST OHIO

CITY           SKY/WX    TMP DP  RH WIND       PRES   REMARKS
CLE-HOPKINS    LGT RAIN  36  33  89 S16G23    30.18F
CLE-LAKEFRONT  CLOUDY    39  35  86 S17G39    30.12F
CUY CO. ARPT   LGT RAIN  39  34  81 SW14G23   30.15F
LORAIN-ELYRIA  CLOUDY    37  35  92 SW14      30.16F
ASHTABULA      FRZ RAIN  32  29  88 S15       30.16F FOG     WCI  22
AKRON-CANTON   LGT RAIN  34  31  88 S13       30.21F FOG     WCI  25
WOOSTER        CLOUDY   N/A N/A N/A SW14      30.21F
MANSFIELD      LGT RAIN  38  37  97 S18G28    30.17F
YOUNGSTOWN     LGT RAIN  32  29  88 S12       30.20F FOG     WCI  23
$$

OHZ042-051>053-060>062-070>072-077>081-221700-
  SOUTHWEST OHIO

CITY           SKY/WX    TMP DP  RH WIND       PRES   REMARKS
CINC-COVINGTON LGT RAIN  47  32  56 S15G22    30.25F
CINC-LUNKEN    CLOUDY    44  36  73 VRB3      30.27F
HAMILTON       CLOUDY    39  36  89 SE5       30.26F
DAYTON         CLOUDY    41  33  73 S17G25    30.22S
WRIGHT-PAT AFB PTSUNNY   42  34  71 SW15G29   30.22F
DAYTON GENERAL LGT RAIN  40  33  76 S12       30.23F
WILMINGTON     CLOUDY    40  31  70 S10       30.25F
$$

OHZ036-037-039>041-045>050-054>059-063>069-073>076-082>088-221700-
  CENTRAL AND SOUTHEAST OHIO

CITY           SKY/WX    TMP DP  RH WIND       PRES   REMARKS
COLUMBUS       CLOUDY    34  30  85 S5        30.26F WCI  30
OSU AIRPORT    CLOUDY    35  30  82 S8        30.24F WCI  29
BOLTON FIELD   CLOUDY    34  30  86 S12       30.25F WCI  25
RICKENBACK AFB CLOUDY    34  30  85 S9        30.26F WCI  26
NEWARK         LGT RAIN  35  30  82 S6        30.26F
MARION         CLOUDY    37  32  82 S18       30.19F
LANCASTER      CLOUDY    37  31  78 S8        30.27F
ZANESVILLE     CLOUDY    31  26  82 S8        30.29F WCI  23
NEW PHILLY     MIX PCPN  33  30  88 SE6       30.28S FOG     WCI  28
$$




U.S. Dept. of Commerce
NOAA National Weather Service
1325 East West Highway
Silver Spring, MD 20910
E-mail: w-nws.webmaster@noaa.gov
Page last modified: May 16, 2007
NATIONAL WEATHER SERVICE: for Safety, for Work, for Fun - FOR LIFE